,,PA_Meas_PMT16A,,PR_Meas_QMR101_102,,RH_Meas_QMH101,,SR_Meas_QMS101,,TA_Meas_QMH101,,GenWind,,GenWind,
time,status,PA,status,PR,status,RH,status,SR,status,TA,status,DirAvg,status,SpdAvg,
2012-04-16, 00:00:04,VALID,917.361,VALID,0,VALID,95.6205,VALID,0,VALID,20.2489,VALID,162,VALID,0.788672,
2012-04-16, 00:01:04,VALID,917.369,VALID,0,VALID,95.5443,VALID,0,VALID,20.2293,VALID,143,VALID,1.71602,
2012-04-16, 00:02:04,VALID,917.355,VALID,0,VALID,95.4833,VALID,0,VALID,20.2083,VALID,143,VALID,1.03594,
2012-04-16, 00:03:04,VALID,917.341,VALID,0,VALID,95.4299,VALID,0,VALID,20.2293,VALID,143,VALID,1.26055,
2012-04-16, 00:04:04,VALID,917.344,VALID,0,VALID,95.3842,VALID,0,VALID,20.2293,VALID,161,VALID,0.310156,
2012-04-16, 00:05:04,VALID,917.312,VALID,0,VALID,95.3613,VALID,0,VALID,20.2083,VALID,161,VALID,1.28516,
2012-04-16, 00:06:04,VALID,917.325,VALID,0,VALID,95.3461,VALID,0,VALID,20.2098,VALID,176,VALID,1.02578,
2012-04-16, 00:07:04,VALID,917.301,VALID,0,VALID,95.3918,VALID,0,VALID,20.2098,VALID,176,VALID,0.798437,
2012-04-16, 00:08:04,VALID,917.307,VALID,0,VALID,95.4375,VALID,0,VALID,20.1903,VALID,176,VALID,0.528125,
2012-04-16, 00:09:04,VALID,917.278,VALID,0,VALID,95.4909,VALID,0,VALID,20.1903,VALID,176,VALID,0.611328,
2012-04-16, 00:10:04,VALID,917.276,VALID,0,VALID,95.529,VALID,0,VALID,20.1693,VALID,176,VALID,0.689453,
2012-04-16, 00:11:04,VALID,917.271,VALID,0,VALID,95.5519,VALID,0.107441,VALID,20.1888,VALID,172,VALID,1.18984,
2012-04-16, 00:12:04,VALID,917.243,VALID,0,VALID,95.6129,VALID,0.107441,VALID,20.1888,VALID,172,VALID,0.692969,
2012-04-16, 00:13:04,VALID,917.189,VALID,0,VALID,95.6662,VALID,0,VALID,20.1693,VALID,172,VALID,0.122656,
2012-04-16, 00:14:04,VALID,917.183,VALID,0,VALID,95.6891,VALID,0.107441,VALID,20.1498,VALID,172,VALID,0.458594,
2012-04-16, 00:15:04,VALID,917.172,VALID,0,VALID,95.6815,VALID,0,VALID,20.1498,VALID,172,VALID,0.36875,
2012-04-16, 00:16:04,VALID,917.142,VALID,0,VALID,95.712,VALID,0,VALID,20.1108,VALID,172,VALID,0.594141,
2012-04-16, 00:17:04,VALID,917.109,VALID,0,VALID,95.7349,VALID,0.107441,VALID,20.0703,VALID,172,VALID,0.558594,
2012-04-16, 00:18:04,VALID,917.071,VALID,0,VALID,95.7425,VALID,0,VALID,20.0718,VALID,172,VALID,0.5375,
2012-04-16, 00:19:04,VALID,917.042,VALID,0,VALID,95.7654,VALID,0,VALID,20.0718,VALID,172,VALID,0.567187,
2012-04-16, 00:20:04,VALID,917.049,VALID,0,VALID,95.7577,VALID,0,VALID,20.0523,VALID,172,VALID,0.836719,
2012-04-16, 00:21:04,VALID,917.035,VALID,0,VALID,95.7577,VALID,0,VALID,20.0718,VALID,172,VALID,0.747656,
2012-04-16, 00:22:04,VALID,916.986,VALID,0,VALID,95.7044,VALID,0,VALID,20.0523,VALID,137,VALID,1.18398,
2012-04-16, 00:23:04,VALID,916.943,VALID,0,VALID,95.7044,VALID,0,VALID,20.0718,VALID,135,VALID,0.574219,
2012-04-16, 00:24:04,VALID,916.91,VALID,0,VALID,95.7196,VALID,0,VALID,20.0328,VALID,135,VALID,0.794141,
2012-04-16, 00:25:04,VALID,916.908,VALID,0,VALID,95.6815,VALID,0,VALID,20.0343,VALID,134,VALID,0.929297,
2012-04-16, 00:26:04,VALID,916.909,VALID,0,VALID,95.6967,VALID,0,VALID,20.0343,VALID,135,VALID,0.926953,
2012-04-16, 00:27:04,VALID,916.859,VALID,0,VALID,95.7349,VALID,0,VALID,20.0343,VALID,135,VALID,0.926953,
2012-04-16, 00:28:04,VALID,916.849,VALID,0,VALID,95.7425,VALID,0,VALID,20.0148,VALID,135,VALID,0.994141,
2012-04-16, 00:29:04,VALID,916.845,VALID,0,VALID,95.6967,VALID,0,VALID,20.0148,VALID,135,VALID,0.885938,
2012-04-16, 00:30:04,VALID,916.822,VALID,0,VALID,95.6815,VALID,0,VALID,19.9953,VALID,134,VALID,0.724219,
2012-04-16, 00:31:04,VALID,916.824,VALID,0,VALID,95.6967,VALID,0,VALID,19.9743,VALID,135,VALID,0.764063,
2012-04-16, 00:32:04,VALID,916.823,VALID,0,VALID,95.7196,VALID,0,VALID,19.9563,VALID,135,VALID,0.601172,
2012-04-16, 00:33:04,VALID,916.84,VALID,0,VALID,95.7272,VALID,0,VALID,19.9563,VALID,135,VALID,0.833594,
2012-04-16, 00:34:04,VALID,916.803,VALID,0,VALID,95.7577,VALID,0,VALID,19.9173,VALID,135,VALID,0.614453,
2012-04-16, 00:35:04,VALID,916.809,VALID,0,VALID,95.7882,VALID,0,VALID,19.8978,VALID,135,VALID,0.503125,
2012-04-16, 00:36:04,VALID,916.793,VALID,0,VALID,95.834,VALID,0,VALID,19.8978,VALID,135,VALID,0.811328,
2012-04-16, 00:37:04,VALID,916.779,VALID,0,VALID,95.9026,VALID,0,VALID,19.9158,VALID,135,VALID,0.576172,
2012-04-16, 00:38:04,VALID,916.77,VALID,0,VALID,95.9178,VALID,0,VALID,19.9173,VALID,134,VALID,0.479297,
2012-04-16, 00:39:04,VALID,916.758,VALID,0,VALID,95.9483,VALID,0,VALID,19.8768,VALID,135,VALID,0.225391,
2012-04-16, 00:40:04,VALID,916.699,VALID,0,VALID,95.9407,VALID,0,VALID,19.8783,VALID,135,VALID,0.213281,
2012-04-16, 00:41:04,VALID,916.7,VALID,0,VALID,96.0245,VALID,0,VALID,19.8768,VALID,135,VALID,0.384766,
2012-04-16, 00:42:04,VALID,916.643,VALID,0,VALID,96.0474,VALID,0,VALID,19.8783,VALID,135,VALID,0.463281,
2012-04-16, 00:43:04,VALID,916.659,VALID,0,VALID,96.0703,VALID,0,VALID,19.8783,VALID,135,VALID,0.474609,
2012-04-16, 00:44:04,VALID,916.641,VALID,0,VALID,96.1008,VALID,0,VALID,19.8573,VALID,135,VALID,0.523828,
2012-04-16, 00:45:04,VALID,916.615,VALID,0,VALID,96.1313,VALID,0,VALID,19.8588,VALID,135,VALID,0.531641,
2012-04-16, 00:46:04,VALID,916.62,VALID,0,VALID,96.1465,VALID,0,VALID,19.8588,VALID,135,VALID,0.390234,
2012-04-16, 00:47:04,VALID,916.587,VALID,0,VALID,96.1541,VALID,0,VALID,19.8393,VALID,135,VALID,0.706641,
2012-04-16, 00:48:04,VALID,916.56,VALID,0,VALID,96.1846,VALID,0,VALID,19.8183,VALID,135,VALID,0.652734,
2012-04-16, 00:49:04,VALID,916.571,VALID,0,VALID,96.2151,VALID,0,VALID,19.7988,VALID,135,VALID,0.578516,
2012-04-16, 00:50:04,VALID,916.548,VALID,0,VALID,96.1923,VALID,0,VALID,19.7793,VALID,135,VALID,0.441797,
2012-04-16, 00:51:04,VALID,916.534,VALID,0,VALID,96.2761,VALID,0,VALID,19.7793,VALID,135,VALID,0.756641,
2012-04-16, 00:52:04,VALID,916.469,VALID,0,VALID,96.3371,VALID,0,VALID,19.8003,VALID,135,VALID,0.793359,
2012-04-16, 00:53:04,VALID,916.435,VALID,0,VALID,96.3371,VALID,0,VALID,19.8183,VALID,135,VALID,0.908203,
2012-04-16, 00:54:04,VALID,916.422,VALID,0,VALID,96.3295,VALID,0,VALID,19.8198,VALID,135,VALID,0.701172,
2012-04-16, 00:55:04,VALID,916.398,VALID,0,VALID,96.2914,VALID,0,VALID,19.8168,VALID,135,VALID,0.854297,
2012-04-16, 00:56:04,VALID,916.358,VALID,0,VALID,96.3447,VALID,0,VALID,19.8183,VALID,135,VALID,0.936328,
2012-04-16, 00:57:04,VALID,916.335,VALID,0,VALID,96.3829,VALID,0,VALID,19.8363,VALID,135,VALID,0.947266,
2012-04-16, 00:58:04,VALID,916.336,VALID,0,VALID,96.2761,VALID,0,VALID,19.8573,VALID,135,VALID,0.717969,
2012-04-16, 00:59:04,VALID,916.262,VALID,0,VALID,96.2761,VALID,0,VALID,19.8168,VALID,135,VALID,0.608203,
2012-04-16, 01:00:04,VALID,916.258,VALID,0,VALID,96.3447,VALID,0,VALID,19.8573,VALID,135,VALID,0.596875,
2012-04-16, 01:01:04,VALID,916.258,VALID,0,VALID,96.299,VALID,0,VALID,19.8768,VALID,135,VALID,0.520312,
2012-04-16, 01:02:04,VALID,916.24,VALID,0,VALID,96.2761,VALID,0,VALID,19.8363,VALID,135,VALID,0.528125,
2012-04-16, 01:03:04,VALID,916.238,VALID,0,VALID,96.2304,VALID,0,VALID,19.8378,VALID,135,VALID,0.182422,
2012-04-16, 01:04:04,VALID,916.191,VALID,0,VALID,96.2151,VALID,0,VALID,19.8183,VALID,135,VALID,0.159375,
2012-04-16, 01:05:04,VALID,916.17,VALID,0,VALID,96.1846,VALID,0.107441,VALID,19.7973,VALID,135,VALID,0,
2012-04-16, 01:06:04,VALID,916.164,VALID,0,VALID,96.177,VALID,0.107441,VALID,19.7583,VALID,135,VALID,0,
2012-04-16, 01:07:04,VALID,916.11,VALID,0,VALID,96.1465,VALID,0,VALID,19.7388,VALID,135,VALID,0,
2012-04-16, 01:08:04,VALID,916.106,VALID,0,VALID,96.177,VALID,0.107441,VALID,19.6998,VALID,135,VALID,0,
2012-04-16, 01:09:04,VALID,916.079,VALID,0,VALID,96.2075,VALID,0,VALID,19.7208,VALID,135,VALID,0,
2012-04-16, 01:10:04,VALID,916.066,VALID,0,VALID,96.238,VALID,0,VALID,19.7208,VALID,135,VALID,0,
2012-04-16, 01:11:04,VALID,916.056,VALID,0,VALID,96.421,VALID,0,VALID,19.6998,VALID,135,VALID,0.55625,
2012-04-16, 01:12:04,VALID,916.032,VALID,0,VALID,96.4362,VALID,0,VALID,19.7388,VALID,135,VALID,0.651953,
2012-04-16, 01:13:04,VALID,916.002,VALID,0,VALID,96.5734,VALID,0,VALID,19.8183,VALID,135,VALID,0.622656,
2012-04-16, 01:14:04,VALID,915.995,VALID,0,VALID,96.5658,VALID,0,VALID,19.7988,VALID,135,VALID,0.725391,
2012-04-16, 01:15:04,VALID,915.956,VALID,0,VALID,96.5429,VALID,0.107441,VALID,19.7988,VALID,135,VALID,0.739844,
2012-04-16, 01:16:04,VALID,915.953,VALID,0,VALID,96.5353,VALID,0,VALID,19.7793,VALID,135,VALID,0.614062,
2012-04-16, 01:17:04,VALID,915.929,VALID,0,VALID,96.4743,VALID,0,VALID,19.7403,VALID,135,VALID,0.980859,
2012-04-16, 01:18:04,VALID,915.913,VALID,0,VALID,96.5124,VALID,0,VALID,19.7208,VALID,135,VALID,0.861328,
2012-04-16, 01:19:04,VALID,915.911,VALID,0,VALID,96.5048,VALID,0,VALID,19.6818,VALID,135,VALID,0.911328,
2012-04-16, 01:20:04,VALID,915.859,VALID,0,VALID,96.5353,VALID,0,VALID,19.6413,VALID,139,VALID,1.00469,
2012-04-16, 01:21:04,VALID,915.833,VALID,0,VALID,96.6039,VALID,0,VALID,19.6623,VALID,143,VALID,0.635547,
2012-04-16, 01:22:04,VALID,915.863,VALID,0,VALID,96.6192,VALID,0,VALID,19.6038,VALID,143,VALID,0.636719,
2012-04-16, 01:23:04,VALID,915.827,VALID,0,VALID,96.6039,VALID,0,VALID,19.5843,VALID,144,VALID,0.660156,
2012-04-16, 01:24:04,VALID,915.805,VALID,0,VALID,96.6344,VALID,0,VALID,19.5438,VALID,144,VALID,0.680078,
2012-04-16, 01:25:04,VALID,915.816,VALID,0,VALID,96.703,VALID,0,VALID,19.5648,VALID,151,VALID,0.549219,
2012-04-16, 01:26:04,VALID,915.819,VALID,0,VALID,96.7335,VALID,0,VALID,19.5648,VALID,151,VALID,0.711328,
2012-04-16, 01:27:04,VALID,915.799,VALID,0,VALID,96.7411,VALID,0,VALID,19.5453,VALID,151,VALID,0.898828,
2012-04-16, 01:28:04,VALID,915.789,VALID,0,VALID,96.7869,VALID,0,VALID,19.5648,VALID,151,VALID,0.95,
2012-04-16, 01:29:04,VALID,915.756,VALID,0,VALID,96.8174,VALID,0,VALID,19.5843,VALID,140,VALID,1.12578,
2012-04-16, 01:30:04,VALID,915.745,VALID,0,VALID,96.7793,VALID,0,VALID,19.5843,VALID,135,VALID,0.880469,
2012-04-16, 01:31:04,VALID,915.755,VALID,0,VALID,96.825,VALID,0,VALID,19.5843,VALID,135,VALID,1.06875,
2012-04-16, 01:32:04,VALID,915.724,VALID,0,VALID,96.8326,VALID,0,VALID,19.5843,VALID,135,VALID,1.06602,
2012-04-16, 01:33:04,VALID,915.707,VALID,0,VALID,96.8326,VALID,0,VALID,19.5648,VALID,135,VALID,0.878516,
2012-04-16, 01:34:04,VALID,915.693,VALID,0,VALID,96.8631,VALID,0,VALID,19.5648,VALID,135,VALID,0.667188,
2012-04-16, 01:35:04,VALID,915.681,VALID,0,VALID,96.886,VALID,0,VALID,19.5648,VALID,135,VALID,0.858594,
2012-04-16, 01:36:04,VALID,915.674,VALID,0,VALID,96.9012,VALID,0,VALID,19.5648,VALID,135,VALID,0.856641,
2012-04-16, 01:37:04,VALID,915.661,VALID,0,VALID,96.8784,VALID,0,VALID,19.5453,VALID,135,VALID,0.733594,
2012-04-16, 01:38:04,VALID,915.635,VALID,0,VALID,96.8479,VALID,0,VALID,19.5258,VALID,135,VALID,0.655078,
2012-04-16, 01:39:04,VALID,915.645,VALID,0,VALID,96.886,VALID,0,VALID,19.5063,VALID,135,VALID,0.480469,
2012-04-16, 01:40:04,VALID,915.649,VALID,0,VALID,96.8784,VALID,0,VALID,19.4868,VALID,135,VALID,0.7625,
2012-04-16, 01:41:04,VALID,915.598,VALID,0,VALID,96.9165,VALID,0,VALID,19.5063,VALID,135,VALID,0.358203,
2012-04-16, 01:42:04,VALID,915.62,VALID,0,VALID,96.9241,VALID,0,VALID,19.4868,VALID,135,VALID,0.200781,
2012-04-16, 01:43:04,VALID,915.607,VALID,0,VALID,96.9394,VALID,0.107441,VALID,19.5063,VALID,135,VALID,0.435547,
2012-04-16, 01:44:04,VALID,915.593,VALID,0,VALID,96.947,VALID,0,VALID,19.5258,VALID,135,VALID,0.428906,
2012-04-16, 01:45:04,VALID,915.578,VALID,0,VALID,96.9241,VALID,0,VALID,19.5063,VALID,135,VALID,0.584375,
2012-04-16, 01:46:04,VALID,915.58,VALID,0,VALID,96.9241,VALID,0,VALID,19.5063,VALID,135,VALID,0.5625,
2012-04-16, 01:47:04,VALID,915.57,VALID,0,VALID,96.9012,VALID,0,VALID,19.5063,VALID,135,VALID,0.146484,
2012-04-16, 01:48:04,VALID,915.554,VALID,0,VALID,96.8936,VALID,0,VALID,19.4673,VALID,135,VALID,0.442578,
2012-04-16, 01:49:04,VALID,915.561,VALID,0,VALID,96.8784,VALID,0,VALID,19.4868,VALID,135,VALID,0.45,
2012-04-16, 01:50:04,VALID,915.54,VALID,0,VALID,96.8326,VALID,0,VALID,19.4868,VALID,135,VALID,0.20625,
2012-04-16, 01:51:04,VALID,915.529,VALID,0,VALID,96.825,VALID,0,VALID,19.4673,VALID,135,VALID,0.00585938,
2012-04-16, 01:52:04,VALID,915.55,VALID,0,VALID,96.825,VALID,0,VALID,19.4283,VALID,135,VALID,0.229687,
2012-04-16, 01:53:04,VALID,915.532,VALID,0,VALID,96.8555,VALID,0,VALID,19.4478,VALID,135,VALID,0.173438,
2012-04-16, 01:54:04,VALID,915.49,VALID,0,VALID,96.886,VALID,0,VALID,19.4283,VALID,135,VALID,0.328906,
2012-04-16, 01:55:04,VALID,915.517,VALID,0,VALID,96.9012,VALID,0,VALID,19.4283,VALID,135,VALID,0,
2012-04-16, 01:56:04,VALID,915.498,VALID,0,VALID,96.886,VALID,0,VALID,19.4478,VALID,135,VALID,0,
2012-04-16, 01:57:04,VALID,915.474,VALID,0,VALID,96.9394,VALID,0,VALID,19.4478,VALID,135,VALID,0,
2012-04-16, 01:58:04,VALID,915.455,VALID,0,VALID,96.9089,VALID,0,VALID,19.4283,VALID,135,VALID,0,
2012-04-16, 01:59:04,VALID,915.449,VALID,0,VALID,96.8479,VALID,0,VALID,19.4088,VALID,135,VALID,0.644922,
2012-04-16, 02:00:04,VALID,915.432,VALID,0,VALID,96.8174,VALID,0,VALID,19.3503,VALID,135,VALID,0.601172,
2012-04-16, 02:01:04,VALID,915.394,VALID,0,VALID,96.7945,VALID,0,VALID,19.3308,VALID,135,VALID,0.316016,
2012-04-16, 02:02:04,VALID,915.415,VALID,0,VALID,96.8174,VALID,0,VALID,19.3128,VALID,135,VALID,0.00585938,
2012-04-16, 02:03:04,VALID,915.4,VALID,0,VALID,96.9317,VALID,0.107441,VALID,19.3113,VALID,135,VALID,0,
2012-04-16, 02:04:04,VALID,915.395,VALID,0,VALID,96.8936,VALID,0,VALID,19.3113,VALID,135,VALID,0,
2012-04-16, 02:05:04,VALID,915.396,VALID,0,VALID,96.9012,VALID,0,VALID,19.2528,VALID,135,VALID,0,
2012-04-16, 02:06:04,VALID,915.375,VALID,0,VALID,96.9317,VALID,0,VALID,19.2124,VALID,135,VALID,0,
2012-04-16, 02:07:04,VALID,915.376,VALID,0,VALID,96.9317,VALID,0,VALID,19.2528,VALID,135,VALID,0.2375,
2012-04-16, 02:08:04,VALID,915.386,VALID,0,VALID,96.9165,VALID,0,VALID,19.2334,VALID,135,VALID,0.335547,
2012-04-16, 02:09:04,VALID,915.396,VALID,0,VALID,96.9241,VALID,0,VALID,19.1944,VALID,135,VALID,0.350781,
2012-04-16, 02:10:04,VALID,915.374,VALID,0,VALID,96.9927,VALID,0,VALID,19.2543,VALID,135,VALID,0.504297,
2012-04-16, 02:11:04,VALID,915.371,VALID,0,VALID,97.0232,VALID,0,VALID,19.2543,VALID,135,VALID,0.616797,
2012-04-16, 02:12:04,VALID,915.36,VALID,0,VALID,97.0537,VALID,0,VALID,19.2543,VALID,135,VALID,0.717578,
2012-04-16, 02:13:04,VALID,915.332,VALID,0,VALID,97.0232,VALID,0,VALID,19.2139,VALID,135,VALID,0.708594,
2012-04-16, 02:14:04,VALID,915.31,VALID,0,VALID,97.0308,VALID,0,VALID,19.1944,VALID,135,VALID,0.695313,
2012-04-16, 02:15:04,VALID,915.332,VALID,0,VALID,97.0766,VALID,0.107441,VALID,19.2139,VALID,135,VALID,0.39375,
2012-04-16, 02:16:04,VALID,915.287,VALID,0,VALID,97.0842,VALID,0,VALID,19.1944,VALID,135,VALID,0.454688,
2012-04-16, 02:17:04,VALID,915.296,VALID,0,VALID,97.1071,VALID,0,VALID,19.2139,VALID,135,VALID,0.616406,
2012-04-16, 02:18:04,VALID,915.276,VALID,0,VALID,97.0308,VALID,0,VALID,19.1554,VALID,135,VALID,0.541406,
2012-04-16, 02:19:04,VALID,915.245,VALID,0,VALID,97.1147,VALID,0,VALID,19.1554,VALID,135,VALID,0.772656,
2012-04-16, 02:20:04,VALID,915.225,VALID,0,VALID,97.1376,VALID,0,VALID,19.1554,VALID,135,VALID,0.658203,
2012-04-16, 02:21:04,VALID,915.24,VALID,0,VALID,97.2062,VALID,0,VALID,19.1554,VALID,135,VALID,0.764844,
2012-04-16, 02:22:04,VALID,915.228,VALID,0,VALID,97.2443,VALID,0,VALID,19.2139,VALID,135,VALID,0.857422,
2012-04-16, 02:23:04,VALID,915.19,VALID,0,VALID,97.2367,VALID,0,VALID,19.2528,VALID,135,VALID,0.891016,
2012-04-16, 02:24:04,VALID,915.167,VALID,0,VALID,97.2367,VALID,0,VALID,19.2319,VALID,135,VALID,1.0332,
2012-04-16, 02:25:04,VALID,915.151,VALID,0,VALID,97.2367,VALID,0,VALID,19.2543,VALID,135,VALID,1.1957,
2012-04-16, 02:26:04,VALID,915.176,VALID,0,VALID,97.2367,VALID,0,VALID,19.2153,VALID,135,VALID,1.25273,
2012-04-16, 02:27:04,VALID,915.151,VALID,0,VALID,97.2367,VALID,0,VALID,19.2348,VALID,135,VALID,1.21992,
2012-04-16, 02:28:04,VALID,915.156,VALID,0,VALID,97.2367,VALID,0,VALID,19.1568,VALID,135,VALID,1.01836,
2012-04-16, 02:29:04,VALID,915.169,VALID,0,VALID,97.2214,VALID,0,VALID,19.1763,VALID,135,VALID,1.12812,
2012-04-16, 02:30:04,VALID,915.184,VALID,0,VALID,97.2367,VALID,0,VALID,19.1778,VALID,135,VALID,1.14688,
2012-04-16, 02:31:04,VALID,915.166,VALID,0,VALID,97.2519,VALID,0,VALID,19.1958,VALID,135,VALID,1.23906,
2012-04-16, 02:32:04,VALID,915.194,VALID,0,VALID,97.2519,VALID,0,VALID,19.2168,VALID,135,VALID,0.966797,
2012-04-16, 02:33:04,VALID,915.169,VALID,0,VALID,97.2519,VALID,0,VALID,19.1763,VALID,135,VALID,0.830078,
2012-04-16, 02:34:04,VALID,915.151,VALID,0,VALID,97.2595,VALID,0,VALID,19.1359,VALID,135,VALID,0.719922,
2012-04-16, 02:35:04,VALID,915.116,VALID,0,VALID,97.2443,VALID,0,VALID,19.1178,VALID,135,VALID,0.6375,
2012-04-16, 02:36:04,VALID,915.103,VALID,0,VALID,97.2595,VALID,0,VALID,19.0983,VALID,135,VALID,0.888281,
2012-04-16, 02:37:04,VALID,915.088,VALID,0,VALID,97.3053,VALID,0,VALID,19.0983,VALID,135,VALID,0.9375,
2012-04-16, 02:38:04,VALID,915.063,VALID,0,VALID,97.2748,VALID,0,VALID,19.1178,VALID,135,VALID,1.07695,
2012-04-16, 02:39:04,VALID,915.028,VALID,0,VALID,97.2824,VALID,0,VALID,19.0983,VALID,135,VALID,0.963672,
2012-04-16, 02:40:04,VALID,915.028,VALID,0,VALID,97.2977,VALID,0,VALID,19.1164,VALID,136,VALID,0.919531,
2012-04-16, 02:41:04,VALID,914.977,VALID,0,VALID,97.3434,VALID,0,VALID,19.0969,VALID,137,VALID,0.598828,
2012-04-16, 02:42:04,VALID,914.978,VALID,0,VALID,97.3129,VALID,0,VALID,19.0969,VALID,137,VALID,0.834766,
2012-04-16, 02:43:04,VALID,914.951,VALID,0,VALID,97.3434,VALID,0,VALID,19.0774,VALID,144,VALID,0.889844,
2012-04-16, 02:44:04,VALID,914.971,VALID,0,VALID,97.3434,VALID,0,VALID,19.0579,VALID,149,VALID,0.708984,
2012-04-16, 02:45:04,VALID,914.95,VALID,0,VALID,97.351,VALID,0,VALID,19.0774,VALID,144,VALID,0.894531,
2012-04-16, 02:46:04,VALID,914.945,VALID,0,VALID,97.3358,VALID,0,VALID,19.0774,VALID,144,VALID,0.540234,
2012-04-16, 02:47:04,VALID,914.968,VALID,0,VALID,97.3739,VALID,0,VALID,19.1178,VALID,144,VALID,0.941797,
2012-04-16, 02:48:04,VALID,914.95,VALID,0,VALID,97.3891,VALID,0,VALID,19.1373,VALID,144,VALID,1.05898,
2012-04-16, 02:49:04,VALID,914.966,VALID,0,VALID,97.3739,VALID,0,VALID,19.0969,VALID,144,VALID,0.922266,
2012-04-16, 02:50:04,VALID,914.951,VALID,0,VALID,97.4044,VALID,0,VALID,19.0774,VALID,144,VALID,0.53125,
2012-04-16, 02:51:04,VALID,914.946,VALID,0,VALID,97.3968,VALID,0,VALID,19.0969,VALID,144,VALID,0.526172,
2012-04-16, 02:52:04,VALID,914.896,VALID,0,VALID,97.3815,VALID,0,VALID,19.0774,VALID,144,VALID,0.383203,
2012-04-16, 02:53:04,VALID,914.915,VALID,0,VALID,97.3891,VALID,0,VALID,19.0579,VALID,144,VALID,0,
2012-04-16, 02:54:04,VALID,914.896,VALID,0,VALID,97.3968,VALID,0,VALID,18.9994,VALID,144,VALID,0,
2012-04-16, 02:55:04,VALID,914.889,VALID,0,VALID,97.3739,VALID,0,VALID,18.9994,VALID,144,VALID,0,
2012-04-16, 02:56:04,VALID,914.876,VALID,0,VALID,97.3968,VALID,0,VALID,19.0008,VALID,144,VALID,0,
2012-04-16, 02:57:04,VALID,914.857,VALID,0,VALID,97.4196,VALID,0,VALID,18.9799,VALID,144,VALID,0,
2012-04-16, 02:58:04,VALID,914.805,VALID,0,VALID,97.412,VALID,0,VALID,18.9994,VALID,144,VALID,0,
2012-04-16, 02:59:04,VALID,914.81,VALID,0,VALID,97.4425,VALID,0,VALID,19.0189,VALID,144,VALID,0,
2012-04-16, 03:00:04,VALID,914.798,VALID,0,VALID,97.4577,VALID,0,VALID,19.0189,VALID,144,VALID,0,
2012-04-16, 03:01:04,VALID,914.762,VALID,0,VALID,97.4425,VALID,0,VALID,19.0189,VALID,144,VALID,0,
2012-04-16, 03:02:04,VALID,914.752,VALID,0,VALID,97.4577,VALID,0,VALID,19.0189,VALID,144,VALID,0,
2012-04-16, 03:03:04,VALID,914.697,VALID,0,VALID,97.4501,VALID,0,VALID,18.9604,VALID,144,VALID,0,
2012-04-16, 03:04:04,VALID,914.729,VALID,0,VALID,97.4501,VALID,0,VALID,18.9604,VALID,144,VALID,0,
2012-04-16, 03:05:04,VALID,914.701,VALID,0,VALID,97.4654,VALID,0,VALID,18.9619,VALID,144,VALID,0,
2012-04-16, 03:06:04,VALID,914.691,VALID,0,VALID,97.473,VALID,0,VALID,18.9424,VALID,144,VALID,0.403516,
2012-04-16, 03:07:04,VALID,914.664,VALID,0,VALID,97.4577,VALID,0,VALID,18.9409,VALID,144,VALID,0.299219,
2012-04-16, 03:08:04,VALID,914.636,VALID,0,VALID,97.4882,VALID,0,VALID,18.9799,VALID,144,VALID,0,
2012-04-16, 03:09:04,VALID,914.632,VALID,0,VALID,97.4959,VALID,0,VALID,19.0189,VALID,144,VALID,0,
2012-04-16, 03:10:04,VALID,914.637,VALID,0,VALID,97.4959,VALID,0,VALID,19.0189,VALID,144,VALID,0,
2012-04-16, 03:11:04,VALID,914.594,VALID,0,VALID,97.5187,VALID,0,VALID,18.9604,VALID,144,VALID,0,
2012-04-16, 03:12:04,VALID,914.563,VALID,0,VALID,97.5111,VALID,0,VALID,18.9409,VALID,144,VALID,0,
2012-04-16, 03:13:04,VALID,914.572,VALID,0,VALID,97.5264,VALID,0,VALID,18.9005,VALID,144,VALID,0,
2012-04-16, 03:14:04,VALID,914.55,VALID,0,VALID,97.4959,VALID,0,VALID,18.8824,VALID,144,VALID,0,
2012-04-16, 03:15:04,VALID,914.554,VALID,0,VALID,97.5035,VALID,0,VALID,18.8629,VALID,144,VALID,0,
2012-04-16, 03:16:04,VALID,914.531,VALID,0,VALID,97.5187,VALID,0,VALID,18.8824,VALID,144,VALID,0,
2012-04-16, 03:17:04,VALID,914.502,VALID,0,VALID,97.5035,VALID,0,VALID,18.8629,VALID,144,VALID,0,
2012-04-16, 03:18:04,VALID,914.484,VALID,0,VALID,97.5187,VALID,0,VALID,18.8839,VALID,144,VALID,0,
2012-04-16, 03:19:04,VALID,914.48,VALID,0,VALID,97.534,VALID,0,VALID,18.8824,VALID,144,VALID,0,
2012-04-16, 03:20:04,VALID,914.444,VALID,0,VALID,97.5264,VALID,0,VALID,18.803,VALID,144,VALID,0,
2012-04-16, 03:21:04,VALID,914.418,VALID,0,VALID,97.5264,VALID,0,VALID,18.7835,VALID,144,VALID,0,
2012-04-16, 03:22:04,VALID,914.404,VALID,0,VALID,97.534,VALID,0,VALID,18.8045,VALID,144,VALID,0,
2012-04-16, 03:23:04,VALID,914.393,VALID,0,VALID,97.5264,VALID,0,VALID,18.7669,VALID,144,VALID,0,
2012-04-16, 03:24:04,VALID,914.362,VALID,0,VALID,97.5264,VALID,0,VALID,18.7655,VALID,144,VALID,0,
2012-04-16, 03:25:04,VALID,914.354,VALID,0,VALID,97.5187,VALID,0,VALID,18.7265,VALID,144,VALID,0,
2012-04-16, 03:26:04,VALID,914.328,VALID,0,VALID,97.5111,VALID,0,VALID,18.746,VALID,144,VALID,0,
2012-04-16, 03:27:04,VALID,914.317,VALID,0,VALID,97.5645,VALID,0,VALID,18.785,VALID,144,VALID,0,
2012-04-16, 03:28:04,VALID,914.319,VALID,0,VALID,97.5416,VALID,0,VALID,18.7655,VALID,144,VALID,0,
2012-04-16, 03:29:04,VALID,914.272,VALID,0,VALID,97.5264,VALID,0,VALID,18.668,VALID,144,VALID,0,
2012-04-16, 03:30:04,VALID,914.287,VALID,0,VALID,97.5111,VALID,0,VALID,18.59,VALID,144,VALID,0,
2012-04-16, 03:31:04,VALID,914.223,VALID,0,VALID,97.4806,VALID,0,VALID,18.5121,VALID,144,VALID,0,
2012-04-16, 03:32:04,VALID,914.23,VALID,0,VALID,97.4654,VALID,0,VALID,18.4341,VALID,144,VALID,0,
2012-04-16, 03:33:04,VALID,914.222,VALID,0,VALID,97.4577,VALID,0,VALID,18.3951,VALID,144,VALID,0,
2012-04-16, 03:34:04,VALID,914.216,VALID,0,VALID,97.5111,VALID,0,VALID,18.4731,VALID,144,VALID,0,
2012-04-16, 03:35:04,VALID,914.222,VALID,0,VALID,97.5645,VALID,0,VALID,18.5705,VALID,144,VALID,0,
2012-04-16, 03:36:04,VALID,914.248,VALID,0,VALID,97.5721,VALID,0,VALID,18.668,VALID,144,VALID,0,
2012-04-16, 03:37:04,VALID,914.248,VALID,0,VALID,97.5721,VALID,0,VALID,18.707,VALID,144,VALID,0,
2012-04-16, 03:38:04,VALID,914.236,VALID,0,VALID,97.6102,VALID,0,VALID,18.668,VALID,144,VALID,0,
2012-04-16, 03:39:04,VALID,914.229,VALID,0,VALID,97.6483,VALID,0,VALID,18.6485,VALID,144,VALID,0,
2012-04-16, 03:40:04,VALID,914.219,VALID,0,VALID,97.6255,VALID,0,VALID,18.6304,VALID,144,VALID,0,
2012-04-16, 03:41:04,VALID,914.209,VALID,0,VALID,97.6102,VALID,0,VALID,18.59,VALID,144,VALID,0,
2012-04-16, 03:42:04,VALID,914.213,VALID,0,VALID,97.595,VALID,0,VALID,18.6109,VALID,144,VALID,0,
2012-04-16, 03:43:04,VALID,914.194,VALID,0,VALID,97.6331,VALID,0,VALID,18.6109,VALID,144,VALID,0,
2012-04-16, 03:44:04,VALID,914.223,VALID,0,VALID,97.6331,VALID,0,VALID,18.5705,VALID,144,VALID,0.167187,
2012-04-16, 03:45:04,VALID,914.212,VALID,0,VALID,97.6331,VALID,0,VALID,18.5525,VALID,144,VALID,0.518359,
2012-04-16, 03:46:04,VALID,914.199,VALID,0,VALID,97.6102,VALID,0,VALID,18.533,VALID,144,VALID,0.748828,
2012-04-16, 03:47:04,VALID,914.195,VALID,0,VALID,97.6178,VALID,0,VALID,18.6109,VALID,144,VALID,0.828125,
2012-04-16, 03:48:04,VALID,914.257,VALID,0,VALID,97.6483,VALID,0,VALID,18.6694,VALID,144,VALID,0.592188,